[[{"header":{"parameterUnit":"m.s-1","parameterCategory":1,"la1":30.2991,"la2":30.254,"lo1":-89.0895,"lo2":-89.0444,"dy":0.0017,"dx":0.0017,"nx":28,"ny":28,"refTime":"2024-05-02T21:00:00:Z","depth":0,"parameterNumber":2,"parameterNumberName":"U-component_of_WINDS"},"data":[0,0,0,0,0,0,0,0,0,0,0,0,0,0,0,0,0,0,0,0,0,0,0,0,0,0,0,0,0,0,0,0,0,0,0,0,0,0,0,0,0,0,0,0,0,0,0,0,0,0,0,0,0,0,0,0,0,0,-2.7413,-2.7412,0,-2.7369,-2.7369,-2.7368,-2.7304,-2.7303,-2.7302,-2.73,-2.7256,-2.7256,-2.7256,0,0,0,0,0,0,0,0,0,0,0,0,0,-2.7444,-2.7444,-2.7413,-2.7412,-2.7412,-2.7369,-2.7369,-2.7368,-2.7304,-2.7303,-2.7301,-2.73,-2.7256,-2.7256,-2.7256,0,0,0,0,0,0,0,0,0,0,0,0,0,-2.7418,-2.7444,-2.7413,-2.7375,-2.7371,-2.7369,-2.7369,-2.7368,-2.7304,-2.7303,-2.7301,-2.7299,-2.7257,-2.7256,-2.7256,-2.7289,0,0,-2.7256,-2.7256,0,0,0,0,0,0,0,0,-2.742,-2.7417,-2.7381,-2.7377,-2.7373,-2.734,-2.7363,-2.7341,-2.7305,-2.733,-2.73,-2.7299,-2.7286,-2.7283,-2.7278,-2.7287,-2.7285,-2.7256,-2.7255,-2.7255,-2.7255,0,0,0,0,0,0,0,-2.7422,-2.7419,-2.7396,-2.7381,-2.7376,-2.7361,-2.7355,-2.7359,-2.7318,-2.7327,-2.7323,-2.7318,-2.7283,-2.7279,-2.7277,-2.7284,-2.7256,-2.7255,-2.7255,-2.7255,-2.7319,-2.732,0,0,0,0,0,0,-2.7429,-2.7421,-2.7397,-2.7394,-2.7393,-2.7362,-2.7355,-2.7352,-2.7317,-2.731,-2.732,-2.7315,-2.728,-2.7277,-2.7275,-2.7311,-2.7255,-2.7255,-2.7255,-2.7317,-2.7319,-2.7321,0,0,0,0,0,0,-2.743,-2.7427,-2.7399,-2.7406,-2.7401,-2.7363,-2.736,-2.7352,-2.7348,-2.7312,-2.7304,-2.7322,-2.7279,-2.7275,-2.7286,-2.7309,-2.7255,-2.7255,-2.7315,-2.7318,-2.732,-2.7384,0,0,0,0,0,0,-2.7431,-2.7428,-2.7439,-2.7407,-2.7401,-2.741,-2.7361,-2.7353,-2.7348,-2.7342,-2.7312,-2.7306,-2.7277,-2.7287,-2.7286,-2.7308,-2.7255,-2.7312,-2.7316,-2.7319,-2.738,-2.7389,-2.7396,0,0,0,0,0,-2.7432,-2.7459,-2.744,-2.7438,-2.7414,-2.7411,-2.7408,-2.7374,-2.735,-2.7361,-2.7338,-2.7307,-2.7307,-2.7288,-2.7287,-2.7309,-2.7311,-2.7315,-2.7319,-2.7376,-2.7387,-2.7396,0,0,0,0,0,0,-2.7494,-2.7454,-2.7432,-2.7449,-2.7434,-2.74,-2.7413,-2.7386,-2.7378,-2.7372,-2.7331,-2.7325,-2.7341,-2.7326,-2.7306,-2.734,-2.7304,-2.7308,-2.7348,-2.7358,-2.7366,-2.7369,-2.7255,0,0,0,0,0,-2.751,-2.751,-2.7475,-2.7493,-2.7487,-2.7452,-2.7449,-2.7425,-2.7407,-2.7401,-2.7378,-2.7363,-2.736,-2.7359,-2.7354,-2.7378,-2.7371,-2.7393,-2.7401,-2.7408,-2.7412,-2.7425,-2.7434,-2.7334,-2.7334,-2.7334,0,0,-2.7542,-2.752,-2.7523,-2.7505,-2.7491,-2.7493,-2.7447,-2.745,-2.7452,-2.7401,-2.7409,-2.7393,-2.7374,-2.7392,-2.7399,-2.738,-2.7438,-2.7413,-2.7419,-2.7419,-2.743,-2.7439,-2.7448,-2.7337,-2.7336,-2.7336,0,0,-2.7601,-2.7585,-2.7598,-2.7585,-2.7564,-2.7541,-2.7545,-2.7516,-2.7503,-2.7511,-2.7474,-2.7475,-2.747,-2.7458,-2.7452,-2.751,-2.7481,-2.751,-2.7553,-2.7566,-2.7574,-2.758,-2.7601,-2.7609,-2.7514,-2.7514,-2.7514,0,-2.7644,-2.7645,-2.7609,-2.7615,-2.7609,-2.7565,-2.7579,-2.7568,-2.7547,-2.7544,-2.7524,-2.7518,-2.7502,-2.7517,-2.7532,-2.7528,-2.7531,-2.7512,-2.7575,-2.7582,-2.7588,-2.7607,-2.7615,-2.7518,-2.7517,-2.7517,-2.7517,0,-2.7698,-2.77,-2.7714,-2.7694,-2.769,-2.7701,-2.7668,-2.7668,-2.7645,-2.7625,-2.7635,-2.7614,-2.7605,-2.7607,-2.7584,-2.762,-2.7609,-2.7583,-2.7546,-2.7601,-2.7619,-2.7626,-2.7523,-2.7522,-2.7521,-2.752,0,0,-2.7792,-2.7755,-2.7761,-2.7752,-2.7727,-2.7728,-2.7738,-2.7729,-2.773,-2.7718,-2.7725,-2.7723,-2.77,-2.7692,-2.7668,-2.768,-2.7729,-2.7653,-2.7652,-2.7667,-2.7767,-2.7786,-2.7795,-2.771,-2.7712,-2.7713,-2.7769,0,-2.7846,-2.7859,-2.7829,-2.785,-2.7851,-2.7811,-2.7819,-2.7805,-2.7787,-2.7787,-2.7767,-2.7767,-2.7736,-2.7731,-2.7741,-2.7721,-2.7748,-2.7716,-2.7717,-2.7717,-2.7721,-2.7804,-2.7824,-2.7878,-2.7775,-2.7777,-2.7777,0,-2.791,-2.7901,-2.7922,-2.7898,-2.7897,-2.7905,-2.7896,-2.7896,-2.788,-2.7866,-2.786,-2.7832,-2.7841,-2.7808,-2.782,-2.7799,-2.7798,-2.7788,-2.7789,-2.7787,-2.775,-2.7804,-2.7894,-2.7902,-2.7788,-2.7787,-2.7786,0,-2.7976,-2.797,-2.7982,-2.7976,-2.7948,-2.7955,-2.7943,-2.7926,-2.7923,-2.7916,-2.7914,-2.7907,-2.7904,-2.79,-2.7872,-2.785,-2.7888,-2.7852,-2.7877,-2.7878,-2.7885,-2.7885,-2.7976,-2.7887,-2.7886,-2.7886,-2.7886,0,-2.8039,-2.8053,-2.8012,-2.8019,-2.8035,-2.8001,-2.8018,-2.8003,-2.7988,-2.7993,-2.7958,-2.7963,-2.7926,-2.7928,-2.7907,-2.792,-2.7919,-2.7909,-2.7902,-2.7911,-2.7912,-2.7909,-2.7904,-2.7888,-2.7888,-2.7888,-2.7887,0,-2.8115,-2.8088,-2.8098,-2.8071,-2.8065,-2.8078,-2.8055,-2.8061,-2.8042,-2.8049,-2.8048,-2.8019,-2.8019,-2.7991,-2.7986,-2.7971,-2.7994,-2.7982,-2.7999,-2.7995,-2.8022,-2.802,-2.8113,-2.8124,-2.8028,-2.8029,-2.803,0,-2.8156,-2.8166,-2.8141,-2.8141,-2.8132,-2.8133,-2.813,-2.8099,-2.8097,-2.8082,-2.8091,-2.8088,-2.8084,-2.8087,-2.8065,-2.8061,-2.8048,-2.8081,-2.8047,-2.8056,-2.8048,-2.8048,-2.8049,-2.8088,-2.8089,-2.809,-2.8091,0,-2.8231,-2.8218,-2.8215,-2.8209,-2.8207,-2.82,-2.8191,-2.8194,-2.816,-2.816,-2.816,-2.8158,-2.8153,-2.8151,-2.8144,-2.8133,-2.8107,-2.8102,-2.8108,-2.8116,-2.8126,-2.8121,-2.8018,-2.81,-2.8099,-2.8098,-2.8098,-2.8098,-2.8291,-2.8299,-2.8283,-2.8281,-2.8272,-2.8265,-2.827,-2.8252,-2.8251,-2.8245,-2.8227,-2.823,-2.8216,-2.8204,-2.8196,-2.8198,-2.8182,-2.819,-2.8192,-2.8194,-2.8199,-2.8127,-2.8197,-2.8197,-2.8197,-2.8196,-2.8196,0,-2.8365,-2.8353,-2.8352,-2.8341,-2.8341,-2.8317,-2.8307,-2.8308,-2.8311,-2.8301,-2.8298,-2.8299,-2.8298,-2.8278,-2.8274,-2.8281,-2.8269,-2.8281,-2.8279,-2.8278,-2.8214,-2.8209,-2.8291,-2.8291,-2.8291,-2.8291,-2.8291,-2.829,-2.8403,-2.8415,-2.8401,-2.8408,-2.8397,-2.8399,-2.8396,-2.839,-2.8381,-2.8384,-2.8383,-2.8369,-2.8355,-2.8351,-2.8349,-2.8344,-2.8344,-2.836,-2.835,-2.8291,-2.8282,-2.8273,-2.8268,-2.8361,-2.8361,-2.8413,-2.8414,-2.8414]},{"header":{"parameterUnit":"m.s-1","parameterCategory":1,"la1":30.2991,"la2":30.254,"lo1":-89.0895,"lo2":-89.0444,"dy":0.0017,"dx":0.0017,"nx":28,"ny":28,"refTime":"2024-05-02T21:00:00:Z","depth":0,"parameterNumber":3,"parameterNumberName":"V-component_of_WINDS"},"data":[0,0,0,0,0,0,0,0,0,0,0,0,0,0,0,0,0,0,0,0,0,0,0,0,0,0,0,0,0,0,0,0,0,0,0,0,0,0,0,0,0,0,0,0,0,0,0,0,0,0,0,0,0,0,0,0,0,0,3.9934,3.9933,0,3.9889,3.9889,3.9888,3.9904,3.9905,3.9906,3.9907,3.9855,3.9853,3.9851,0,0,0,0,0,0,0,0,0,0,0,0,0,4.0029,4.0027,3.9934,3.9933,3.9933,3.9889,3.9888,3.9888,3.9904,3.9905,3.9906,3.9908,3.9856,3.9853,3.9851,0,0,0,0,0,0,0,0,0,0,0,0,0,3.9986,4.0027,3.9934,3.9936,3.9935,3.9889,3.9888,3.9888,3.9904,3.9905,3.9907,3.9908,3.9857,3.9854,3.985,3.9798,0,0,3.984,3.9838,0,0,0,0,0,0,0,0,3.9989,3.9983,3.9936,3.9936,3.9935,3.9904,3.9903,3.9857,3.9903,3.9915,3.9907,3.9909,3.987,3.9865,3.9853,3.9796,3.9793,3.9839,3.9837,3.9836,3.9835,0,0,0,0,0,0,0,3.9992,3.9985,3.9916,3.9935,3.9935,3.9937,3.9933,3.9895,3.9884,3.9915,3.9916,3.991,3.987,3.9857,3.9852,3.9793,3.9839,3.9836,3.9834,3.9833,3.9691,3.9689,0,0,0,0,0,0,3.9996,3.9987,3.9917,3.9915,3.9966,3.9934,3.9929,3.9912,3.9885,3.9882,3.9909,3.9911,3.9862,3.9856,3.9851,3.9789,3.9836,3.9832,3.983,3.9693,3.9691,3.9689,0,0,0,0,0,0,3.9998,3.9989,3.9919,3.9951,3.9943,3.9931,3.9912,3.9911,3.9898,3.9881,3.9879,3.9898,3.9863,3.9856,3.9812,3.9787,3.9831,3.9828,3.9695,3.9692,3.969,3.9664,0,0,0,0,0,0,4.0,3.999,3.9971,3.9951,3.9941,3.9882,3.991,3.9909,3.9892,3.9895,3.987,3.9867,3.9864,3.9817,3.9808,3.9783,3.9825,3.9697,3.9693,3.9691,3.9667,3.9661,3.9656,0,0,0,0,0,4.0004,3.9964,3.997,3.9961,3.9917,3.9881,3.9875,3.9873,3.989,3.987,3.986,3.9868,3.9791,3.9812,3.9803,3.9776,3.9698,3.9694,3.9691,3.9669,3.9662,3.9656,0,0,0,0,0,0,3.9979,3.9961,3.9967,3.992,3.9902,3.9884,3.9859,3.9865,3.9841,3.9844,3.9841,3.9835,3.979,3.9779,3.9802,3.9725,3.9747,3.9741,3.9734,3.9727,3.9722,3.9725,3.9822,0,0,0,0,0,3.9968,3.9942,3.9927,3.9887,3.9878,3.987,3.9854,3.9855,3.9835,3.9827,3.9813,3.9792,3.9764,3.9745,3.9717,3.9665,3.966,3.9643,3.9637,3.9632,3.9627,3.96,3.9592,3.9676,3.9677,3.9677,0,0,3.9945,3.9932,3.9915,3.9882,3.9868,3.984,3.9863,3.9832,3.981,3.9821,3.978,3.9769,3.9746,3.9698,3.9676,3.9687,3.9603,3.9628,3.9624,3.9621,3.9595,3.9588,3.958,3.9674,3.9674,3.9675,0,0,3.9889,3.9877,3.9843,3.9829,3.9809,3.9804,3.9796,3.9776,3.9771,3.9729,3.9738,3.9711,3.9662,3.9645,3.963,3.957,3.9577,3.9561,3.9532,3.9505,3.9499,3.9493,3.9472,3.9464,3.9556,3.9556,3.9556,0,3.9863,3.9822,3.9824,3.9793,3.9778,3.9789,3.9754,3.9739,3.971,3.9699,3.9712,3.9651,3.9636,3.9586,3.9571,3.9558,3.9549,3.9564,3.95,3.9494,3.9488,3.9469,3.9461,3.9554,3.9555,3.9555,3.9555,0,3.9791,3.9763,3.9737,3.9712,3.9694,3.9661,3.9656,3.9638,3.964,3.9634,3.9592,3.9575,3.9545,3.9533,3.9533,3.9482,3.949,3.9501,3.9523,3.9479,3.946,3.9452,3.9552,3.9553,3.9553,3.9554,0,0,3.9717,3.9695,3.9685,3.9675,3.9654,3.9631,3.9598,3.9571,3.9556,3.9535,3.9507,3.9466,3.9478,3.9461,3.946,3.9437,3.9391,3.9451,3.945,3.9441,3.9335,3.9327,3.9318,3.9396,3.9394,3.9393,3.9337,0,3.966,3.9606,3.9607,3.9555,3.9529,3.954,3.9511,3.9495,3.9488,3.9464,3.9456,3.9428,3.9444,3.9434,3.9412,3.9402,3.937,3.9406,3.9369,3.9368,3.9376,3.9308,3.9299,3.9247,3.9329,3.9328,3.9327,0,3.9587,3.9567,3.9513,3.9498,3.9487,3.9462,3.9438,3.9415,3.9396,3.9393,3.9375,3.9379,3.9345,3.9368,3.9321,3.9346,3.9331,3.9324,3.9322,3.9318,3.9345,3.9303,3.923,3.9222,3.9316,3.9317,3.9317,0,3.9539,3.9499,3.9462,3.9452,3.9433,3.9415,3.9406,3.9389,3.9373,3.9351,3.9341,3.9315,3.93,3.928,3.9276,3.9293,3.9229,3.9252,3.9225,3.9225,3.9211,3.9212,3.9135,3.92,3.92,3.9201,3.9201,0,3.9476,3.9443,3.9441,3.9418,3.9382,3.9383,3.9346,3.9338,3.9323,3.9299,3.9305,3.9281,3.9278,3.9253,3.9249,3.9211,3.9204,3.92,3.92,3.92,3.9201,3.9191,3.9194,3.9199,3.9199,3.9199,3.92,0,3.9417,3.9414,3.9375,3.9361,3.9357,3.933,3.9317,3.9295,3.929,3.9259,3.9251,3.9243,3.9214,3.9208,3.9173,3.9171,3.9126,3.9129,3.9133,3.9134,3.9107,3.911,3.9021,3.901,3.9083,3.9082,3.9081,0,3.9377,3.9352,3.9336,3.9321,3.9312,3.9287,3.9272,3.9272,3.9255,3.9234,3.9214,3.9187,3.9165,3.9118,3.9108,3.9082,3.9084,3.9055,3.908,3.9082,3.9085,3.9086,3.9084,3.905,3.9049,3.9048,3.9048,0,3.9307,3.9307,3.9286,3.9264,3.9246,3.9229,3.9212,3.9199,3.9197,3.9177,3.915,3.9133,3.9099,3.9072,3.9046,3.9035,3.9041,3.904,3.9033,3.9033,3.9037,3.9035,3.9121,3.9042,3.9043,3.9043,3.9043,3.9044,3.9256,3.9236,3.9222,3.9198,3.9186,3.9171,3.915,3.9143,3.9121,3.9095,3.9095,3.9065,3.9047,3.9014,3.9001,3.8977,3.8986,3.8975,3.8972,3.897,3.8968,3.9041,3.8972,3.8972,3.8972,3.8972,3.8972,0,3.9187,3.918,3.9158,3.9136,3.9117,3.9126,3.9109,3.9092,3.9066,3.905,3.9029,3.8998,3.8971,3.896,3.8934,3.8917,3.8919,3.891,3.8911,3.8909,3.896,3.897,3.8909,3.8909,3.8909,3.8909,3.8909,3.8909,3.9149,3.9115,3.9114,3.9074,3.9066,3.9038,3.9027,3.9013,3.9001,3.8966,3.8945,3.8938,3.8924,3.8898,3.8874,3.8871,3.8862,3.8851,3.885,3.8898,3.8905,3.8911,3.892,3.8849,3.8849,3.88,3.88,3.88]}]]